Location: Christianberg
(48.9086°N, 14.0209°E)
Time: 21:15:30
(UTC+00:00)

IRIDIUM 106 - Pass Details

Date: 20 June 2021
Orbit: 776 x 779 km, 86.4° (Epoch: 02 August)

Event Time Altitude Azimuth Distance (km) Brightness Sun altitude
Rises 01:32:10 0° 355° (N) 3,275 8.5 -10.6°
Reaches altitude 10° 01:34:32 10° 355° (N) 2,342 7.6 -10.4°
Maximum altitude 01:39:47 83° 269° (W) 791 4.3 -9.9°
Drops below altitude 10° 01:44:59 10° 181° (S) 2,322 6.3 -9.4°
Enters shadow 01:45:58 - 181° (S) 2,706 6.6 -9.3°
